BCC981 EDDK-EDDH

Flight info

Callsign BCC981
Flight time 0h 40m
Altitude 31000
Route PODIP8K PODIP Y867 PELUN DCT ANZIV DCT WRB Y867 TOLGI DCT SAS/N0468F300 P605 NOLGO NOLGO3S
Aircraft A320/M-SDE3FGHIRWY/LB1

Departure

Time 2026-04-25 11:59
Airport Cologne Bonn Airport (EDDK)

Arrival

Time 2026-04-25 12:39
Airport Hamburg Helmut Schmidt Airport (EDDH)
Time Latitude Longitude Altitude Speed Heading
2026-04-25 11:09 50.88170 7.11946 230 ft 0 kts 216°
2026-04-25 11:47 50.88189 7.11966 231 ft 4 kts 209°
2026-04-25 11:47 50.88213 7.11983 233 ft 4 kts 186°
2026-04-25 11:48 50.88235 7.11976 232 ft 2 kts 127°
2026-04-25 11:48 50.88235 7.11974 231 ft 0 kts 126°
2026-04-25 11:52 50.88235 7.11976 232 ft 1 kts 126°
2026-04-25 11:53 50.88231 7.11985 230 ft 2 kts 126°
2026-04-25 11:53 50.88210 7.12029 231 ft 9 kts 126°
2026-04-25 11:53 50.88170 7.12114 230 ft 11 kts 126°
2026-04-25 11:53 50.88123 7.12218 231 ft 13 kts 124°
2026-04-25 11:54 50.88086 7.12350 231 ft 14 kts 120°
2026-04-25 11:54 50.88016 7.12474 230 ft 16 kts 136°
2026-04-25 11:54 50.87803 7.12652 230 ft 20 kts 144°
2026-04-25 11:55 50.87695 7.12805 230 ft 22 kts 137°
2026-04-25 11:55 50.87577 7.12979 230 ft 24 kts 137°
2026-04-25 11:55 50.87448 7.13160 232 ft 25 kts 138°
2026-04-25 11:55 50.87313 7.13355 234 ft 27 kts 137°
2026-04-25 11:56 50.87177 7.13558 238 ft 27 kts 137°
2026-04-25 11:56 50.87037 7.13760 242 ft 28 kts 138°
2026-04-25 11:56 50.86924 7.13996 248 ft 26 kts 102°
2026-04-25 11:56 50.86894 7.14269 257 ft 24 kts 99°
2026-04-25 11:57 50.86872 7.14540 255 ft 26 kts 81°
2026-04-25 11:57 50.86940 7.14814 255 ft 28 kts 64°
2026-04-25 11:57 50.87022 7.15084 264 ft 27 kts 64°
2026-04-25 11:57 50.87097 7.15332 274 ft 20 kts 70°
2026-04-25 11:58 50.87041 7.15470 277 ft 15 kts 152°
2026-04-25 11:58 50.86946 7.15455 280 ft 18 kts 230°
2026-04-25 11:58 50.86875 7.15226 268 ft 34 kts 245°
2026-04-25 11:58 50.86687 7.14597 259 ft 94 kts 244°
2026-04-25 11:59 50.86322 7.13396 253 ft 145 kts 244°
2026-04-25 11:59 50.85904 7.12014 855 ft 127 kts 244°
2026-04-25 11:59 50.85498 7.10732 1089 ft 142 kts 247°
2026-04-25 12:00 50.84499 7.07426 1447 ft 190 kts 246°
2026-04-25 12:00 50.83695 7.05797 2126 ft 190 kts 211°
2026-04-25 12:00 50.81192 7.06108 3392 ft 191 kts 160°
2026-04-25 12:01 50.79895 7.06906 3622 ft 213 kts 158°
2026-04-25 12:01 50.78459 7.07992 3884 ft 238 kts 141°
2026-04-25 12:01 50.77496 7.10159 4228 ft 258 kts 104°
2026-04-25 12:01 50.77369 7.13054 4770 ft 271 kts 86°
2026-04-25 12:02 50.77526 7.19126 6416 ft 282 kts 86°
2026-04-25 12:02 50.77607 7.22237 7218 ft 285 kts 86°
2026-04-25 12:02 50.77684 7.25396 8022 ft 290 kts 86°
2026-04-25 12:03 50.77756 7.28599 8819 ft 293 kts 86°
2026-04-25 12:03 50.77824 7.31839 9607 ft 297 kts 86°
2026-04-25 12:03 50.77890 7.35127 10356 ft 302 kts 86°
2026-04-25 12:03 50.77959 7.38543 10632 ft 323 kts 86°
2026-04-25 12:04 50.78033 7.42214 10788 ft 346 kts 86°
2026-04-25 12:04 50.78110 7.46131 10910 ft 368 kts 86°
2026-04-25 12:04 50.78188 7.50251 11270 ft 380 kts 86°
2026-04-25 12:04 50.78506 7.54412 11829 ft 383 kts 75°
2026-04-25 12:05 50.79344 7.58417 12447 ft 385 kts 63°
2026-04-25 12:05 50.80662 7.62033 13069 ft 385 kts 52°
2026-04-25 12:05 50.82442 7.65196 13704 ft 386 kts 40°
2026-04-25 12:05 50.84466 7.68015 14302 ft 389 kts 39°
2026-04-25 12:06 50.86508 7.70873 14889 ft 392 kts 39°
2026-04-25 12:06 50.88549 7.73760 15484 ft 395 kts 39°
2026-04-25 12:06 50.90606 7.76687 16062 ft 399 kts 39°
2026-04-25 12:06 50.92673 7.79647 16637 ft 403 kts 40°
2026-04-25 12:07 50.94553 7.82985 17220 ft 410 kts 51°
2026-04-25 12:07 50.96093 7.86833 17814 ft 415 kts 57°
2026-04-25 12:07 50.97554 7.90802 18400 ft 419 kts 57°
2026-04-25 12:07 50.99037 7.94801 18919 ft 422 kts 57°
2026-04-25 12:08 51.00531 7.98828 19453 ft 425 kts 57°
2026-04-25 12:08 51.02029 8.02882 19977 ft 427 kts 57°
2026-04-25 12:08 51.03533 8.06965 20481 ft 429 kts 57°
2026-04-25 12:08 51.05044 8.11071 20956 ft 432 kts 57°
2026-04-25 12:09 51.06545 8.15156 21410 ft 434 kts 57°
2026-04-25 12:09 51.08067 8.19312 21851 ft 437 kts 57°
2026-04-25 12:09 51.09598 8.23502 22278 ft 439 kts 57°
2026-04-25 12:09 51.11137 8.27719 22687 ft 441 kts 57°
2026-04-25 12:10 51.12677 8.31955 23085 ft 444 kts 57°
2026-04-25 12:10 51.14223 8.36230 23483 ft 446 kts 57°
2026-04-25 12:10 51.15773 8.40529 23843 ft 449 kts 57°
2026-04-25 12:10 51.17330 8.44852 24147 ft 451 kts 57°
2026-04-25 12:11 51.18894 8.49195 24451 ft 453 kts 57°
2026-04-25 12:11 51.20585 8.53425 24763 ft 452 kts 50°
2026-04-25 12:11 51.22581 8.57303 25082 ft 452 kts 46°
2026-04-25 12:11 51.24612 8.61154 25388 ft 454 kts 46°
2026-04-25 12:12 51.26640 8.65016 25702 ft 456 kts 46°
2026-04-25 12:12 51.27996 8.67605 25913 ft 457 kts 46°
2026-04-25 12:12 51.30718 8.72821 26500 ft 456 kts 46°
2026-04-25 12:12 51.32745 8.76714 26973 ft 454 kts 46°
2026-04-25 12:13 51.34758 8.80590 27443 ft 453 kts 46°
2026-04-25 12:13 51.36769 8.84471 27913 ft 452 kts 46°
2026-04-25 12:13 51.38775 8.88339 28396 ft 451 kts 46°
2026-04-25 12:13 51.40778 8.92193 28876 ft 449 kts 46°
2026-04-25 12:14 51.42776 8.96030 29351 ft 448 kts 45°
2026-04-25 12:14 51.44766 8.99855 29855 ft 446 kts 45°
2026-04-25 12:14 51.46722 9.03630 30323 ft 445 kts 45°
2026-04-25 12:14 51.48698 9.07446 30729 ft 444 kts 45°
2026-04-25 12:15 51.50749 9.11122 31045 ft 441 kts 39°
2026-04-25 12:15 51.53056 9.14332 31132 ft 441 kts 33°
2026-04-25 12:15 51.57921 9.20588 31135 ft 452 kts 33°
2026-04-25 12:16 51.62835 9.26947 31135 ft 454 kts 34°
2026-04-25 12:16 51.67744 9.33364 31134 ft 454 kts 34°
2026-04-25 12:17 51.72653 9.39794 31130 ft 455 kts 34°
2026-04-25 12:17 51.77571 9.46242 31134 ft 455 kts 34°
2026-04-25 12:18 51.88601 9.57934 31139 ft 445 kts 21°
2026-04-25 12:18 52.10702 9.76360 31116 ft 447 kts 21°
2026-04-25 12:19 52.27721 9.89604 31130 ft 437 kts
2026-04-25 12:20 52.33595 9.92157 31123 ft 437 kts
2026-04-25 12:20 52.39468 9.94736 31130 ft 437 kts
2026-04-25 12:21 52.45337 9.97328 31131 ft 437 kts
2026-04-25 12:21 52.51209 9.99927 31132 ft 437 kts
2026-04-25 12:22 52.57036 10.02510 31106 ft 435 kts
2026-04-25 12:22 52.59918 10.03801 30857 ft 423 kts
2026-04-25 12:22 52.62720 10.05064 30616 ft 413 kts
2026-04-25 12:22 52.65476 10.06303 30140 ft 409 kts
2026-04-25 12:23 52.68218 10.07532 29481 ft 407 kts
2026-04-25 12:23 52.70946 10.08750 28845 ft 404 kts
2026-04-25 12:23 52.73702 10.09973 27668 ft 415 kts
2026-04-25 12:23 52.76507 10.11192 26787 ft 415 kts
2026-04-25 12:24 52.79341 10.11824 26112 ft 406 kts 356°
2026-04-25 12:24 52.82147 10.11928 25480 ft 403 kts 355°
2026-04-25 12:24 52.84945 10.12014 24865 ft 400 kts 355°
2026-04-25 12:24 52.87721 10.12102 24271 ft 398 kts 355°
2026-04-25 12:25 52.90505 10.12191 23157 ft 406 kts 355°
2026-04-25 12:25 52.93317 10.12278 22120 ft 411 kts 355°
2026-04-25 12:25 52.96167 10.12374 21323 ft 409 kts 355°
2026-04-25 12:25 52.99003 10.12756 20606 ft 410 kts
2026-04-25 12:26 53.01808 10.13570 19904 ft 408 kts
2026-04-25 12:26 53.04596 10.14419 19243 ft 405 kts
2026-04-25 12:26 53.07357 10.15268 18628 ft 402 kts
2026-04-25 12:26 53.10097 10.16117 17995 ft 399 kts
2026-04-25 12:27 53.12821 10.16969 17365 ft 395 kts
2026-04-25 12:27 53.15490 10.17811 16463 ft 386 kts
2026-04-25 12:27 53.18115 10.18634 15381 ft 380 kts
2026-04-25 12:27 53.20699 10.19441 14322 ft 375 kts
2026-04-25 12:28 53.23247 10.20279 13203 ft 371 kts
2026-04-25 12:28 53.25635 10.21945 12134 ft 378 kts 27°
2026-04-25 12:28 53.27552 10.24888 11101 ft 385 kts 47°
2026-04-25 12:28 53.28780 10.28836 10585 ft 376 kts 64°
2026-04-25 12:29 53.29647 10.32789 10438 ft 349 kts 64°
2026-04-25 12:29 53.30425 10.36489 10291 ft 327 kts 64°
2026-04-25 12:29 53.31150 10.40017 9878 ft 317 kts 64°
2026-04-25 12:29 53.31948 10.43402 9281 ft 305 kts 51°
2026-04-25 12:30 53.33305 10.45907 8700 ft 281 kts 24°
2026-04-25 12:30 53.35037 10.47029 8102 ft 258 kts 356°
2026-04-25 12:30 53.36723 10.46629 7505 ft 239 kts 329°
2026-04-25 12:30 53.37956 10.44910 6897 ft 230 kts 301°
2026-04-25 12:31 53.38441 10.42384 6310 ft 231 kts 278°
2026-04-25 12:31 53.38522 10.39683 5721 ft 232 kts 275°
2026-04-25 12:31 53.38547 10.37033 5310 ft 224 kts 275°
2026-04-25 12:31 53.38558 10.34437 4808 ft 222 kts 274°
2026-04-25 12:32 53.38640 10.31910 4264 ft 217 kts 287°
2026-04-25 12:32 53.39274 10.29770 4008 ft 202 kts 302°
2026-04-25 12:32 53.39947 10.27820 3977 ft 189 kts 298°
2026-04-25 12:32 53.40548 10.25881 3958 ft 188 kts 297°
2026-04-25 12:33 53.41134 10.23937 3796 ft 185 kts 297°
2026-04-25 12:33 53.41716 10.22005 3761 ft 186 kts 296°
2026-04-25 12:33 53.42303 10.20068 3718 ft 187 kts 297°
2026-04-25 12:33 53.42894 10.18131 3676 ft 187 kts 297°
2026-04-25 12:34 53.43688 10.16414 3603 ft 189 kts 316°
2026-04-25 12:34 53.44818 10.15251 3528 ft 193 kts 328°
2026-04-25 12:34 53.46015 10.14232 3444 ft 192 kts 328°
2026-04-25 12:34 53.46792 10.13572 3384 ft 185 kts 328°
2026-04-25 12:35 53.48270 10.12315 3278 ft 171 kts 328°
2026-04-25 12:35 53.49310 10.11426 3243 ft 166 kts 327°
2026-04-25 12:35 53.50326 10.10556 2997 ft 166 kts 327°
2026-04-25 12:35 53.51354 10.09673 2729 ft 166 kts 327°
2026-04-25 12:36 53.52389 10.08782 2491 ft 167 kts 327°
2026-04-25 12:36 53.53413 10.07907 2247 ft 161 kts 328°
2026-04-25 12:36 53.54369 10.07095 2026 ft 147 kts 327°
2026-04-25 12:36 53.55250 10.06344 1827 ft 138 kts 327°
2026-04-25 12:37 53.56088 10.05623 1641 ft 134 kts 326°
2026-04-25 12:37 53.56911 10.04912 1454 ft 132 kts 325°
2026-04-25 12:37 53.57726 10.04208 1264 ft 131 kts 324°
2026-04-25 12:37 53.58534 10.03509 1075 ft 130 kts 324°
2026-04-25 12:38 53.59341 10.02809 881 ft 132 kts 326°
2026-04-25 12:38 53.60153 10.02121 652 ft 132 kts 325°
2026-04-25 12:38 53.60976 10.01389 448 ft 134 kts 325°
2026-04-25 12:38 53.61800 10.00677 259 ft 135 kts 324°
2026-04-25 12:39 53.62636 9.99949 73 ft 134 kts 324°
2026-04-25 12:39 53.63389 9.99288 50 ft 100 kts 334°
2026-04-25 12:39 53.63840 9.98900 49 ft 40 kts 333°
2026-04-25 12:39 53.63955 9.98883 48 ft 11 kts 84°
2026-04-25 12:40 53.63919 9.98984 50 ft 11 kts 122°
2026-04-25 12:40 53.63867 9.99105 50 ft 14 kts 126°
2026-04-25 12:40 53.63807 9.99247 50 ft 16 kts 126°
2026-04-25 12:40 53.63738 9.99408 51 ft 18 kts 126°
2026-04-25 12:41 53.63660 9.99587 50 ft 20 kts 126°
2026-04-25 12:41 53.63576 9.99782 50 ft 21 kts 126°
2026-04-25 12:41 53.63492 9.99978 48 ft 19 kts 126°
2026-04-25 12:41 53.63424 10.00138 51 ft 16 kts 125°
2026-04-25 12:42 53.63347 10.00232 49 ft 15 kts 172°
2026-04-25 12:42 53.63289 10.00239 51 ft 13 kts 177°
2026-04-25 12:42 53.63155 10.00253 51 ft 16 kts 176°
2026-04-25 12:42 53.63115 10.00262 51 ft 2 kts 148°
2026-04-25 12:43 53.63111 10.00293 51 ft 4 kts 95°
2026-04-25 12:43 53.63111 10.00335 51 ft 3 kts 87°